Burlington, IA

4:54 PM CST on January 19, 2017 (GMT -0600)
Burlington Regional

Weather History for KBRL - January, 2013

Change the Weather History Date:

Friday, January 11, 2013

  Actual Average Record
Temperature  
Mean Temperature 49 °F 26 °F  
Max Temperature 55 °F 34 °F 55 °F (1980)
Min Temperature 42 °F 17 °F -17 °F (1977)
Degree Days  
Heating Degree Days 16 39  
Month to date heating degree days 389 429  
Since 1 July heating degree days 2582 2615  
Cooling Degree Days 0 0  
Month to date cooling degree days 0 0  
Year to date cooling degree days 0 0  
Moisture  
Dew Point 45 °F    
Average Humidity 83    
Maximum Humidity 100    
Minimum Humidity 66    
Precipitation  
Precipitation 0.01 in 0.04 in 0.48 in (1960)
Month to date precipitation 0.61 0.47  
Year to date precipitation 0.61 0.47  
Sea Level Pressure  
Sea Level Pressure 29.71 in    
Wind  
Wind Speed 13 mph (SSW)    
Max Wind Speed 22 mph    
Max Gust Speed 29 mph    
Visibility 4 miles    
Events Fog    
T = Trace of Precipitation, MM = Missing Value Source: NWS Daily Summary

Daily Weather History Graph

Daily Weather History Graph

Search for Another Location

Airport or City:

Trip Planner

Search our weather history database for the weather conditions in past years. The results will help you decide how hot, cold, wet, or windy it might be!

Date:

Astronomy

Jan. 11, 2013 Rise Set
Actual Time 7:27 AM CST 4:57 PM CST
Civil Twilight 6:57 AM CST 5:27 PM CST
Nautical Twilight 6:23 AM CST 6:01 PM CST
Astronomical Twilight 5:50 AM CST 6:34 PM CST
Moon 7:00 AM CST (1/11) 5:16 PM CST (1/11)
Length of Visible Light 10h 30m
Length of Day
9h 29m
Waning Crescent, 0% of the Moon is Illuminated
Jan 11
Waning Crescent
Jan 11
New
Jan 18
First Quarter
Jan 26
Full
Feb 3
Last Quarter

Hourly Weather History & Observations

Time (CST) Temp. Windchill Dew Point Humidity Pressure Visibility Wind Dir Wind Speed Gust Speed Precip Events Conditions
12:32 AM 42.8 °F 40.1 °F 42.8 °F 100% 29.74 in 2.0 mi SE 4.6 mph - 0.01 in   Overcast
12:49 AM 42.8 °F 40.1 °F 42.8 °F 100% 29.74 in 0.8 mi ESE 4.6 mph - 0.01 in   Overcast
12:50 AM 43.0 °F 40.3 °F 42.1 °F 97% 29.75 in 0.8 mi ESE 4.6 mph - 0.01 in   Overcast
1:10 AM 44.6 °F 43.1 °F 44.6 °F 100% 29.73 in 1.5 mi South 3.5 mph - N/A   Overcast
1:25 AM 44.6 °F 43.1 °F 42.8 °F 93% 29.71 in 0.5 mi ESE 3.5 mph - N/A Fog Fog
1:53 AM 43.0 °F 41.3 °F 43.0 °F 100% 29.73 in 0.5 mi SSE 3.5 mph - N/A Fog Fog
2:00 AM 42.8 °F 41.1 °F 42.8 °F 100% 29.71 in 0.2 mi South 3.5 mph - N/A Fog Fog
2:53 AM 42.1 °F 37.1 °F 42.1 °F 100% 29.74 in 0.2 mi SSW 8.1 mph - N/A Fog Fog
3:27 AM 42.8 °F 37.0 °F 42.8 °F 100% 29.73 in 0.2 mi SSW 10.4 mph - N/A Fog Fog
3:53 AM 43.0 °F 38.2 °F 43.0 °F 100% 29.73 in 0.2 mi SW 8.1 mph - N/A Fog Fog
4:40 AM 44.6 °F 37.8 °F 44.6 °F 100% 29.72 in 0.5 mi SW 15.0 mph - N/A Fog Fog
4:53 AM 44.1 °F 37.7 °F 44.1 °F 100% 29.74 in 1.2 mi WSW 12.7 mph - N/A   Overcast
5:06 AM 44.6 °F 37.8 °F 44.6 °F 100% 29.73 in 3.0 mi WSW 15.0 mph - N/A   Overcast
5:21 AM 44.6 °F 39.7 °F 44.6 °F 100% 29.71 in 2.0 mi WSW 9.2 mph - N/A   Overcast
5:53 AM 44.1 °F 40.1 °F 44.1 °F 100% 29.73 in 1.8 mi SW 6.9 mph - N/A   Overcast
6:04 AM 44.6 °F 40.7 °F 44.6 °F 100% 29.72 in 0.5 mi SW 6.9 mph - N/A Fog Fog
6:12 AM 42.8 °F 38.0 °F 42.8 °F 100% 29.73 in 0.2 mi SW 8.1 mph - N/A Fog Fog
7:53 AM 44.1 °F 38.6 °F 44.1 °F 100% 29.77 in 0.2 mi SSW 10.4 mph - N/A Fog Fog
8:38 AM 46.4 °F 42.4 °F 44.6 °F 93% 29.76 in 1.0 mi SSW 8.1 mph - N/A   Mist
8:53 AM 46.0 °F 41.0 °F 45.0 °F 96% 29.77 in 2.0 mi SSW 10.4 mph - N/A   Overcast
9:10 AM 46.4 °F 41.1 °F 46.4 °F 100% 29.75 in 1.8 mi SSW 11.5 mph - N/A   Overcast
9:17 AM 46.4 °F 41.1 °F 46.4 °F 100% 29.75 in 2.0 mi South 11.5 mph - N/A   Overcast
9:32 AM 46.4 °F 41.5 °F 46.4 °F 100% 29.75 in 3.0 mi South 10.4 mph - N/A   Overcast
9:53 AM 46.9 °F - 46.9 °F 100% 29.75 in 3.0 mi South 11.5 mph - N/A   Overcast
10:53 AM 48.0 °F - 46.9 °F 96% 29.74 in 5.0 mi South 12.7 mph - N/A   Overcast
11:41 AM 51.8 °F - 48.2 °F 88% 29.70 in 7.0 mi South 11.5 mph - N/A   Overcast
11:53 AM 51.1 °F - 48.9 °F 92% 29.71 in 7.0 mi South 13.8 mph - N/A   Overcast
12:28 PM 53.6 °F - 50.0 °F 88% 29.67 in 10.0 mi South 16.1 mph 23.0 mph N/A   Scattered Clouds
12:53 PM 54.0 °F - 48.0 °F 80% 29.65 in 10.0 mi South 19.6 mph 25.3 mph N/A   Scattered Clouds
1:53 PM 53.6 °F - 48.2 °F 82% 29.65 in 10.0 mi South 12.7 mph - N/A   Clear
2:53 PM 54.0 °F - 48.0 °F 80% 29.63 in 10.0 mi South 18.4 mph 25.3 mph N/A   Clear
3:53 PM 55.0 °F - 48.0 °F 77% 29.63 in 10.0 mi South 20.7 mph 28.8 mph N/A   Clear
4:53 PM 54.0 °F - 46.9 °F 77% 29.64 in 10.0 mi South 17.3 mph - N/A   Clear
5:53 PM 55.0 °F - 46.9 °F 74% 29.64 in 10.0 mi South 17.3 mph - N/A   Clear
6:53 PM 55.0 °F - 46.0 °F 72% 29.63 in 10.0 mi South 17.3 mph - N/A   Clear
7:53 PM 55.0 °F - 45.0 °F 69% 29.63 in 10.0 mi South 16.1 mph 26.5 mph N/A   Clear
8:53 PM 53.1 °F - 45.0 °F 74% 29.66 in 10.0 mi SSW 13.8 mph - N/A   Clear
9:53 PM 54.0 °F - 45.0 °F 72% 29.66 in 10.0 mi SSW 12.7 mph - N/A   Clear
10:53 PM 53.1 °F - 45.0 °F 74% 29.67 in 10.0 mi SSW 11.5 mph 20.7 mph N/A   Clear
11:53 PM 54.0 °F - 45.0 °F 72% 29.66 in 10.0 mi South 17.3 mph 24.2 mph N/A   Clear